Location: Caltech
(34.1382°N, 118.1253°W)
Time: 07:44:48
(UTC-08:00)

OPAL - Visible Passes

Search period start: 21 December 2014 00:00
Search period end: 31 December 2014 00:00
Orbit: 744 x 796 km, 100.2° (Epoch: 20 December)

Date Brightness Start Highest point End Pass type
(mag) Time Alt. Az. Time Alt. Az. Time Alt. Az.
21 Dec 7.6 04:53:56 10° SSE 04:58:51 70° ENE 05:02:23 20° N visible
21 Dec 8.6 17:07:58 10° NE 17:12:17 26° E 17:16:34 10° SSE visible
21 Dec 9.2 18:46:31 10° N 18:51:05 32° WNW 18:55:40 10° SW visible
22 Dec 9.1 04:19:29 10° SE 04:23:45 30° ENE 04:26:38 18° NNE visible
22 Dec 8.5 05:58:30 10° SSW 06:02:34 25° W 06:06:42 10° NW visible
22 Dec 7.7 18:10:48 10° N 18:15:59 73° WNW 18:21:11 10° SSW visible
23 Dec 10.2 03:46:29 10° E 03:48:52 14° ENE 03:50:54 11° NE visible
23 Dec 7.4 05:22:16 10° S 05:27:09 61° WSW 05:31:12 16° NNW visible
23 Dec 7.8 17:35:42 10° NNE 17:40:44 48° ESE 17:45:45 10° S visible
23 Dec 10.0 19:15:43 10° NNW 19:19:10 18° WNW 19:22:38 10° WSW visible
24 Dec 8.0 04:47:05 10° SSE 04:51:56 56° ENE 04:55:28 19° N visible
24 Dec 8.8 18:39:24 10° N 18:44:13 40° WNW 18:49:02 10° SW visible
25 Dec 9.5 04:12:55 10° ESE 04:16:53 25° ENE 04:19:44 15° NNE visible
25 Dec 8.2 05:51:10 10° SSW 05:55:34 32° W 06:00:03 10° NW visible
25 Dec 7.5 18:03:51 10° NNE 18:09:05 90° WNW 18:14:18 10° SSW visible
26 Dec 10.3 03:40:51 10° ENE 03:42:03 11° ENE 03:43:15 10° NE visible
26 Dec 7.3 05:15:14 10° S 05:20:12 77° WSW 05:24:19 16° NNW visible
26 Dec 8.1 17:28:54 10° NNE 17:33:46 39° E 17:38:36 10° S visible
26 Dec 9.7 19:08:24 10° NNW 19:12:20 22° WNW 19:16:17 10° WSW visible
27 Dec 8.4 04:40:18 10° SE 04:45:01 45° ENE 04:48:36 17° N visible
27 Dec 9.0 06:20:53 10° SW 06:24:04 17° W 06:27:17 10° NW visible
27 Dec 8.4 18:32:20 10° N 18:37:20 49° WNW 18:42:20 10° SW visible
28 Dec 9.8 04:06:26 10° ESE 04:10:01 20° ENE 04:12:52 13° NNE visible
28 Dec 7.9 05:43:55 10° S 05:48:34 40° W 05:53:11 11° NNW visible
28 Dec 7.5 17:56:56 10° NNE 18:02:09 74° ESE 18:07:21 10° S visible
28 Dec 10.3 19:38:17 10° NW 19:40:21 12° WNW 19:42:25 10° W visible
29 Dec 7.4 05:08:16 10° SSE 05:13:15 85° ENE 05:17:28 15° NNW visible
29 Dec 8.4 17:22:10 10° NE 17:26:47 31° E 17:31:23 10° SSE visible
29 Dec 9.4 19:01:10 10° N 19:05:29 27° WNW 19:09:49 10° WSW visible
30 Dec 8.8 04:33:34 10° SE 04:38:07 36° ENE 04:41:45 15° N visible
30 Dec 8.7 06:13:16 10° SW 06:17:02 21° W 06:20:51 10° NW visible
30 Dec 8.0 18:25:18 10° N 18:30:26 61° WNW 18:35:33 10° SSW visible
